This demonstration page uses our WeatherBlox Daily Observations layout. Learn more.

Left ArrowRight Arrow

34.16533, -84.80231

Hourly Observations for June 24, 2019

Temp ( °F °C ) Dew Point ( °F °C ) Humidity (%) Winds ( mph kmh ) Pressure ( in mb ) Visibility ( mi km ) Precip ( " mm )
12:53 am 00:53 Clear 75 23.9 72 22.2 90 90 Calm 29.95 1014 10 16 0.00 0.00
1:53 am 01:53 Clear 73 22.8 72 22.2 96 96 Calm 29.94 1014 8 13 0.00 0.00
2:53 am 02:53 Clear 72 22.2 71 21.7 97 97 ENE 3 6 29.94 1014 9 14 0.00 0.00
3:53 am 03:53 Clear 71 21.7 70 21.1 96 96 Calm 29.92 1013 8 13 0.00 0.00
4:53 am 04:53 Clear 72 22.2 70 21.1 94 94 Calm 29.91 1013 8 13 0.00 0.00
5:53 am 05:53 Clear 72 22.2 71 21.7 97 97 Calm 29.92 1013 8 13 0.00 0.00
6:53 am 06:53 Sunny with Mist and Fog 72 22.2 70 21.1 94 94 VRB 3 6 29.92 1013 6 10 0.00 0.00
7:53 am 07:53 Sunny 75 23.9 71 21.7 88 88 S 7 11 29.94 1014 8 13 0.00 0.00
8:53 am 08:53 Sunny 78 25.6 72 22.2 82 82 S 5 7 29.95 1014 10 16 0.00 0.00
9:28 am 09:28 Mostly Cloudy 80 26.7 72 22.2 76 76 VRB 6 9 29.96 1014 10 16 0.00 0.00
9:53 am 09:53 Mostly Cloudy 81 27.2 72 22.2 74 74 SSW 8 13 29.96 1014 10 16 0.00 0.00
10:53 am 10:53 Partly Cloudy 81 27.2 71 21.7 72 72 S 6 9 29.94 1014 10 16 0.00 0.00
11:53 am 11:53 Mostly Cloudy 83 28.3 72 22.2 70 70 S 8 13 29.92 1013 10 16 0.00 0.00
12:53 pm 12:53 Mostly Cloudy 85 29.4 71 21.7 63 63 SSW 8 13 29.89 1012 10 16 0.00 0.00
1:53 pm 13:53 Partly Cloudy 87 30.6 72 22.2 61 61 S 7 11 29.87 1011 10 16 0.00 0.00
2:53 pm 14:53 Mostly Cloudy 87 30.6 72 22.2 61 61 undefined N/A 29.86 1011 10 16 0.00 0.00
3:53 pm 15:53 Mostly Sunny 86 30 73 22.8 65 65 VRB 6 9 29.86 1011 10 16 0.00 0.00
4:53 pm 16:53 Sunny 85 29.4 73 22.8 68 68 VRB 7 11 29.85 1011 10 16 0.00 0.00
5:03 pm 17:03 Sunny with Nearby Thunderstorms 85 29.4 73 22.8 68 68 S 6 9 29.85 1011 10 16 0.00 0.00
5:12 pm 17:12 Sunny with Thunderstorms 85 29.4 73 22.8 68 68 VRB 7 11 29.84 1010 10 16 0.00 0.00
5:30 pm 17:30 Mostly Cloudy with Thunderstorms 81 27.2 72 22.2 74 74 undefined N/A 29.87 1012 2 2 0.07 1.78
5:44 pm 17:44 Cloudy with Thunderstorms 74 23.3 72 22.2 94 94 Calm 29.88 1012 3 5 0.12 3.05
5:53 pm 17:53 Mostly Cloudy with Thunderstorms 74 23.3 72 22.2 94 94 S 3 6 29.87 1012 2 3 0.13 3.30
6:08 pm 18:08 Mostly Cloudy with Thunderstorms 74 23.3 72 22.2 94 94 SSE 5 7 29.88 1012 10 16 0.00 0.03
6:34 pm 18:34 Partly Cloudy with Nearby Thunderstorms 73 22.8 70 21.1 90 90 S 8 13 29.90 1012 10 16 0.00 0.03
6:53 pm 18:53 Sunny with Light Rain 73 22.8 71 21.7 94 94 S 5 7 29.89 1012 10 16 0.00 0.03
7:53 pm 19:53 Partly Cloudy 72 22.2 70 21.1 94 94 SSW 5 7 29.90 1013 10 16 0.01 0.25
8:53 pm 20:53 Sunny 72 22.2 70 21.1 94 94 Calm 29.90 1013 10 16 0.00 0.00
9:53 pm 21:53 Clear 71 21.7 70 21.1 96 96 Calm 29.89 1012 10 16 0.00 0.00
10:53 pm 22:53 Clear 69 20.6 68 20 96 96 Calm 29.93 1013 9 14 0.00 0.00
11:53 pm 23:53 Clear 68 20 68 20 100 100 Calm 29.94 1014 9 14 0.00 0.00

Powered by AerisWeather